• In Hungary
  • List of Countries
  • For 7 days
  • Water Temperature
  • Satellite Maps
  • Weather Map
  • News
  • Weather Widgets
  • user-avatar
    Login

    Hourly Weather Lincoln

    Today, 16 August, Thursday

    Time Temperature Precipitation Wind Pressure Humidity
    00:00 +19°C° 0 mm 6 mps 753 mmHg 81%
    01:00 +19°C° 0.4 mm 6 mps 753 mmHg 82%
    02:00 +19°C° 0.4 mm 6 mps 753 mmHg 84%
    03:00 +19°C° 0.4 mm 6 mps 752 mmHg 86%
    04:00 +17°C° 1.2 mm 6 mps 752 mmHg 86%
    05:00 +17°C° 1.2 mm 6 mps 752 mmHg 86%
    06:00 +16°C° 1.2 mm 5 mps 752 mmHg 85%
    07:00 +16°C° 1.3 mm 5 mps 752 mmHg 85%
    08:00 +16°C° 1.3 mm 5 mps 752 mmHg 84%
    09:00 +17°C° 1.3 mm 4 mps 752 mmHg 84%
    10:00 +16°C° 0.7 mm 5 mps 753 mmHg 80%
    11:00 +16°C° 0.7 mm 5 mps 753 mmHg 76%
    12:00 +16°C° 0.7 mm 5 mps 753 mmHg 72%
    13:00 +17°C° 0 mm 5 mps 753 mmHg 67%
    14:00 +17°C° 0 mm 5 mps 753 mmHg 63%
    15:00 +19°C° 0 mm 5 mps 754 mmHg 59%
    16:00 +19°C° 0 mm 5 mps 754 mmHg 59%
    17:00 +19°C° 0 mm 4 mps 754 mmHg 60%
    18:00 +19°C° 0 mm 4 mps 754 mmHg 60%
    19:00 +18°C° 0 mm 4 mps 754 mmHg 64%
    20:00 +17°C° 0 mm 4 mps 755 mmHg 68%
    21:00 +16°C° 0 mm 3 mps 755 mmHg 73%
    22:00 +14°C° 0 mm 3 mps 755 mmHg 75%
    23:00 +14°C° 0 mm 3 mps 756 mmHg 77%

    Tomorrow, 17 August, Friday

    Time Temperature Precipitation Wind Pressure Humidity
    00:00 +13°C° 0 mm 3 mps 756 mmHg 79%
    01:00 +13°C° 0 mm 3 mps 756 mmHg 81%
    02:00 +12°C° 0 mm 3 mps 756 mmHg 83%
    03:00 +12°C° 0 mm 3 mps 756 mmHg 85%
    04:00 +12°C° 0 mm 3 mps 757 mmHg 85%
    05:00 +12°C° 0 mm 3 mps 757 mmHg 84%
    06:00 +12°C° 0 mm 3 mps 757 mmHg 84%
    07:00 +14°C° 0 mm 3 mps 757 mmHg 78%
    08:00 +16°C° 0 mm 3 mps 758 mmHg 71%
    09:00 +18°C° 0 mm 4 mps 758 mmHg 64%
    10:00 +18°C° 0 mm 4 mps 758 mmHg 61%
    11:00 +19°C° 0 mm 4 mps 758 mmHg 58%
    12:00 +20°C° 0 mm 4 mps 758 mmHg 54%
    13:00 +20°C° 0 mm 5 mps 758 mmHg 54%
    14:00 +20°C° 0 mm 5 mps 758 mmHg 53%
    15:00 +20°C° 0 mm 5 mps 758 mmHg 52%
    16:00 +20°C° 0 mm 5 mps 758 mmHg 55%
    17:00 +20°C° 0 mm 5 mps 758 mmHg 58%
    18:00 +19°C° 0 mm 5 mps 758 mmHg 61%
    19:00 +17°C° 0 mm 5 mps 758 mmHg 65%
    20:00 +16°C° 0 mm 5 mps 758 mmHg 70%
    21:00 +16°C° 0 mm 5 mps 758 mmHg 75%
    22:00 +16°C° 0 mm 5 mps 758 mmHg 77%
    23:00 +15°C° 0 mm 5 mps 758 mmHg 78%

    Day after tomorrow, 18 August, Saturday

    Time Temperature Precipitation Wind Pressure Humidity
    00:00 +15°C° 0 mm 6 mps 757 mmHg 80%
    01:00 +15°C° 0 mm 6 mps 757 mmHg 81%
    02:00 +16°C° 0 mm 6 mps 757 mmHg 82%
    03:00 +16°C° 0 mm 6 mps 757 mmHg 83%
    04:00 +16°C° 0 mm 6 mps 757 mmHg 83%
    05:00 +16°C° 0 mm 6 mps 757 mmHg 83%
    06:00 +16°C° 0 mm 6 mps 757 mmHg 83%
    07:00 +17°C° 0 mm 6 mps 757 mmHg 79%
    08:00 +19°C° 0 mm 6 mps 758 mmHg 74%
    09:00 +20°C° 0 mm 6 mps 758 mmHg 70%
    10:00 +21°C° 0 mm 6 mps 758 mmHg 67%
    11:00 +22°C° 0 mm 6 mps 758 mmHg 65%
    12:00 +23°C° 0 mm 6 mps 758 mmHg 62%
    13:00 +23°C° 0 mm 5 mps 758 mmHg 62%
    14:00 +23°C° 0 mm 5 mps 758 mmHg 61%
    15:00 +23°C° 0 mm 4 mps 758 mmHg 61%
    16:00 +23°C° 0 mm 4 mps 758 mmHg 63%
    17:00 +24°C° 0 mm 3 mps 758 mmHg 65%
    18:00 +23°C° 0 mm 2 mps 759 mmHg 67%
    19:00 +21°C° 0 mm 2 mps 759 mmHg 70%
    20:00 +21°C° 0 mm 1 mps 759 mmHg 74%
    21:00 +19°C° 0 mm 0 mps 759 mmHg 77%
    22:00 +20°C° 0 mm 1 mps 759 mmHg 79%
    23:00 +19°C° 0 mm 2 mps 759 mmHg 81%

    19 August, Sunday

    Time Temperature Precipitation Wind Pressure Humidity
    00:00 +18°C° 0 mm 2 mps 759 mmHg 83%
    01:00 +18°C° 0 mm 3 mps 759 mmHg 85%
    02:00 +17°C° 0 mm 3 mps 758 mmHg 87%
    03:00 +17°C° 0 mm 4 mps 758 mmHg 89%
    04:00 +17°C° 0 mm 4 mps 758 mmHg 89%
    05:00 +17°C° 0 mm 4 mps 757 mmHg 89%
    06:00 +16°C° 0 mm 5 mps 757 mmHg 89%
    07:00 +17°C° 0.1 mm 6 mps 757 mmHg 87%
    08:00 +19°C° 0.1 mm 6 mps 757 mmHg 85%
    09:00 +20°C° 0.1 mm 7 mps 757 mmHg 82%
    10:00 +20°C° 0.1 mm 7 mps 756 mmHg 81%
    11:00 +21°C° 0.1 mm 7 mps 756 mmHg 80%
    12:00 +21°C° 0.1 mm 7 mps 756 mmHg 79%
    13:00 +21°C° 0 mm 7 mps 756 mmHg 77%
    14:00 +22°C° 0 mm 7 mps 756 mmHg 74%
    15:00 +22°C° 0 mm 6 mps 756 mmHg 72%
    16:00 +22°C° 0 mm 6 mps 756 mmHg 72%
    17:00 +22°C° 0 mm 6 mps 756 mmHg 73%
    18:00 +22°C° 0 mm 5 mps 756 mmHg 73%
    19:00 +21°C° 0 mm 5 mps 757 mmHg 77%
    20:00 +20°C° 0 mm 4 mps 757 mmHg 82%
    21:00 +19°C° 0 mm 4 mps 757 mmHg 86%
    22:00 +19°C° 0 mm 4 mps 757 mmHg 88%
    23:00 +19°C° 0 mm 4 mps 757 mmHg 89%

    20 August, Monday

    Time Temperature Precipitation Wind Pressure Humidity
    00:00 +18°C° 0 mm 4 mps 758 mmHg 90%
    01:00 +18°C° 0 mm 4 mps 757 mmHg 91%
    02:00 +18°C° 0 mm 4 mps 757 mmHg 92%
    03:00 +18°C° 0 mm 4 mps 757 mmHg 92%
    04:00 +18°C° 0 mm 4 mps 758 mmHg 91%
    05:00 +18°C° 0 mm 4 mps 758 mmHg 90%
    06:00 +18°C° 0 mm 4 mps 758 mmHg 89%
    07:00 +19°C° 0 mm 5 mps 758 mmHg 83%
    08:00 +20°C° 0 mm 5 mps 758 mmHg 76%
    09:00 +21°C° 0 mm 5 mps 759 mmHg 70%
    10:00 +22°C° 0 mm 5 mps 759 mmHg 67%
    11:00 +22°C° 0 mm 5 mps 759 mmHg 64%
    12:00 +23°C° 0 mm 5 mps 759 mmHg 60%
    13:00 +23°C° 0 mm 5 mps 759 mmHg 60%
    14:00 +23°C° 0 mm 5 mps 759 mmHg 60%
    15:00 +23°C° 0 mm 5 mps 759 mmHg 59%
    16:00 +23°C° 0 mm 5 mps 759 mmHg 61%
    17:00 +22°C° 0 mm 4 mps 759 mmHg 63%
    18:00 +22°C° 0 mm 4 mps 759 mmHg 65%
    19:00 +20°C° 0 mm 4 mps 760 mmHg 69%
    20:00 +19°C° 0 mm 3 mps 760 mmHg 73%
    21:00 +18°C° 0 mm 3 mps 760 mmHg 76%
    22:00 +18°C° 0 mm 3 mps 761 mmHg 78%
    23:00 +17°C° 0 mm 3 mps 761 mmHg 81%

    21 August, Tuesday

    Time Temperature Precipitation Wind Pressure Humidity
    00:00 +17°C° 0 mm 3 mps 761 mmHg 83%
    01:00 +16°C° 0 mm 2 mps 761 mmHg 85%
    02:00 +16°C° 0 mm 2 mps 760 mmHg 87%
    03:00 +16°C° 0 mm 2 mps 760 mmHg 89%
    04:00 +16°C° 0 mm 2 mps 760 mmHg 88%
    05:00 +16°C° 0 mm 2 mps 760 mmHg 88%
    06:00 +16°C° 0 mm 2 mps 760 mmHg 88%
    07:00 +18°C° 0 mm 3 mps 760 mmHg 82%
    08:00 +20°C° 0 mm 3 mps 760 mmHg 76%
    09:00 +21°C° 0 mm 3 mps 760 mmHg 69%
    10:00 +22°C° 0 mm 4 mps 759 mmHg 66%
    11:00 +23°C° 0 mm 4 mps 759 mmHg 63%
    12:00 +25°C° 0 mm 5 mps 759 mmHg 59%
    13:00 +26°C° 0 mm 5 mps 758 mmHg 59%
    14:00 +26°C° 0 mm 5 mps 757 mmHg 59%
    15:00 +26°C° 0 mm 6 mps 757 mmHg 58%
    16:00 +26°C° 0 mm 6 mps 756 mmHg 60%
    17:00 +25°C° 0 mm 5 mps 756 mmHg 63%
    18:00 +25°C° 0 mm 5 mps 755 mmHg 65%
    19:00 +23°C° 0 mm 5 mps 755 mmHg 69%
    20:00 +22°C° 0 mm 5 mps 755 mmHg 73%
    21:00 +21°C° 0 mm 5 mps 755 mmHg 78%
    22:00 +20°C° 1.2 mm 5 mps 755 mmHg 80%
    23:00 +20°C° 1.2 mm 5 mps 755 mmHg 83%
    Show more